Location: Dittelbrunn
(50.0738°N, 10.2196°E)
Time: 22:32:41
(UTC+00:00)

Cosmos 1626 - Pass Details

Date: 18 September 2020
Orbit: 490 x 495 km, 82.5° (Epoch: 30 October)

Event Time Altitude Azimuth Distance (km) Brightness Sun altitude
Rises 20:12:39 0° 346° (NNW) 2,592 6.5 -25.7°
Reaches altitude 10° 20:14:48 10° 342° (NNW) 1,703 5.5 -26.0°
Enters shadow 20:17:27 40° 317° (NW) 741 3.4 -26.3°
